sat.trackr.live / text

‹ back to catalog

ONEWEB-0049

NORAD 45154 · 2020-008Z

PAYLOAD ACTIVE UNKNOWN

§ Identity

Operator
Country
UK
Launch date
2020-02-06
Launch site
TYMSC
Launch vehicle
Mass (kg)
RCS (m²)

Purposes: comms

External: N2YO · Heavens-Above · Gunter

§ Orbital elements

Epoch: 2026-05-25T02:05:48.715296Z

Period
109.89 min
Inclination
87.8855°
Eccentricity
0.0002104
Mean motion
13.10372338 rev/d
Perigee alt
1,220.1 km
Apogee alt
1,223.3 km
Semi-major
7,599.9 km
B*
1.9861e-3
RAAN
40.8750°
Arg perigee
89.7919°
Mean anomaly
270.3450°
Rev number
30,500

§ Raw data

ONEWEB-00491 45154U 20008Z   26145.08736939  .00000706  00000+0  19861-2 0  99912 45154  87.8855  40.8750 0002104  89.7919 270.3450 13.10372338305006

JSON: /api/v1/satellites/45154 · /tle

For live sub-satellite position, see the globe view (requires WebGL).

§ Visibility from observer

Set your observer location to see the next 7 days of passes ≥ 10°. The values pass through the URL so the page stays shareable.

No JS? Fill the form by hand. The geolocation button needs JavaScript.